Main page
METAR-TAF:

METAR-TAF

Airports :

Leconfield, England

latitude: 53-52-37N, longitude: 0-26-15W, elevation: 7 m

Current weather observation

The report was made 25 minutes ago, at 06:50 UTC
Wind 4 kt from the East/Southeast
Temperature 16°C
Humidity 82%
Pressure 1021 hPa
Visibility 10 km or more

METAR: EGXV 260650Z AUTO 11004KT 9999 NCD 16/13 Q1021

Time: 08:15 (07:15 UTC)


TAF: missing

Weather observations and forecasts of more than 4000 airports (METAR and TAF reports).

The available stations are represented by yellow and red dots on the map.

Hover mouse over dot to see the name of the station.

Then click to see weather observations and forecasts.

To change the map : click on the green buttons with a black cross to zoom in, on the green button with a dash to zoom out, or on the green arrows for adjacent maps.


METAR-TAF: